Tracking 27420 objects as of 28-May-2023
HD Live streaming from Space Station
objects crossing your sky now

BREEZE-M DEB

Track BREEZE-M DEB now!


NORAD ID: 39328
Int'l Code: 2008-011DF
Perigee: 1,071.2 km
Apogee: 27,170.9 km
Inclination: 48.7 °
Period: 486.6 minutes
Semi major axis: 20492 km
RCS: 0.0404 m2 (small)
Launch date: March 14, 2008
Source: Commonwealth of Independent States (former USSR) (CIS)
Launch site: TYURATAM MISSILE AND SPACE COMPLEX (TTMTR)

Note: This is SATELLITE DEBRIS
Your satellite tracking list
Your tracking list is empty




NASA's NSSDC Master Catalog

Two Line Element Set (TLE):
1 39328U 08011DF  23143.36496948  .00000665  00000-0  54192-1 0  9996
2 39328  48.7038 146.9708 6368248 157.5937 251.8413  2.95953974123166
Source of the keplerian elements: AFSPC